Location: Newark
(35.8967°N, 14.4625°E)
Time: 08:47:48
(UTC+00:00)

ISS - Visible Passes

Search period start: 20 October 2019 00:00
Search period end: 30 October 2019 00:00
Orbit: 411 x 421 km, 51.6° (Epoch: 20 October)

Date Brightness Start Highest point End Pass type
(mag) Time Alt. Az. Time Alt. Az. Time Alt. Az.
23 Oct -1.0 03:59:48 10° S 04:02:15 19° SE 04:04:42 10° E visible
24 Oct -0.5 03:13:41 10° SE 03:13:50 10° SE 03:13:59 10° ESE visible
24 Oct -3.7 04:46:47 10° WSW 04:50:08 66° NW 04:53:29 10° NE visible
25 Oct -3.4 03:59:27 21° SSW 04:01:32 63° SE 04:04:51 10° NE visible
26 Oct -1.8 03:13:42 28° ESE 03:13:42 28° ESE 03:16:01 10° ENE visible
26 Oct -2.4 04:46:54 10° W 04:49:44 24° NNW 04:52:33 10° NNE visible
27 Oct -3.2 04:00:39 38° NW 04:00:59 39° NW 04:04:11 10° NE visible
28 Oct -1.4 03:14:29 20° NE 03:14:29 20° NE 03:15:40 10° NE visible
28 Oct -1.5 04:48:01 10° NW 04:49:31 12° NNW 04:51:01 10° N visible
29 Oct -1.8 04:01:05 17° NNW 04:01:05 17° NNW 04:02:59 10° NNE visible
